Hourly Weather Kozminka

Today, 20 October, Tuesday

Time Temperature Precipitation Wind Pressure Humidity
00:00 +3°C° 0 mm 4 mps 746 mmHg 79%
01:00 +1°C° 0 mm 4 mps 746 mmHg 80%
02:00 +1°C° 0 mm 4 mps 747 mmHg 81%
03:00 +1°C° 0 mm 4 mps 747 mmHg 84%
04:00 0°C° 0 mm 4 mps 747 mmHg 85%
05:00 0°C° 0 mm 4 mps 747 mmHg 85%
06:00 0°C° 0 mm 5 mps 747 mmHg 86%
07:00 +1°C° 0 mm 5 mps 747 mmHg 83%
08:00 +1°C° 0 mm 6 mps 747 mmHg 80%
09:00 +2°C° 0 mm 6 mps 747 mmHg 76%
10:00 +3°C° 0 mm 7 mps 747 mmHg 70%
11:00 +4°C° 0 mm 7 mps 747 mmHg 63%
12:00 +5°C° 0 mm 8 mps 747 mmHg 57%
13:00 +6°C° 0 mm 8 mps 747 mmHg 57%
14:00 +6°C° 0 mm 7 mps 747 mmHg 57%
15:00 +6°C° 0 mm 7 mps 747 mmHg 57%
16:00 +5°C° 0.1 mm 7 mps 747 mmHg 60%
17:00 +4°C° 0.1 mm 6 mps 747 mmHg 63%
18:00 +3°C° 0.1 mm 5 mps 747 mmHg 66%
19:00 +3°C° 0 mm 5 mps 748 mmHg 70%
20:00 +2°C° 0 mm 5 mps 748 mmHg 74%
21:00 +2°C° 0 mm 5 mps 749 mmHg 77%
22:00 +1°C° 0 mm 5 mps 749 mmHg 78%
23:00 +1°C° 0 mm 4 mps 749 mmHg 79%

Tomorrow, 21 October, Wednesday

Time Temperature Precipitation Wind Pressure Humidity
00:00 0°C° 0 mm 4 mps 749 mmHg 81%
01:00 0°C° 0 mm 4 mps 750 mmHg 82%
02:00 0°C° 0 mm 3 mps 750 mmHg 83%
03:00 0°C° 0 mm 3 mps 751 mmHg 84%
04:00 0°C° 0 mm 3 mps 751 mmHg 85%
05:00 0°C° 0 mm 3 mps 751 mmHg 86%
06:00 -1°C° 0 mm 3 mps 751 mmHg 86%
07:00 0°C° 0 mm 3 mps 751 mmHg 82%
08:00 +1°C° 0 mm 3 mps 751 mmHg 78%
09:00 +1°C° 0 mm 3 mps 752 mmHg 74%
10:00 +2°C° 0 mm 3 mps 751 mmHg 69%
11:00 +3°C° 0 mm 3 mps 751 mmHg 65%
12:00 +4°C° 0 mm 3 mps 751 mmHg 60%
13:00 +4°C° 0 mm 3 mps 751 mmHg 60%
14:00 +4°C° 0 mm 3 mps 751 mmHg 59%
15:00 +5°C° 0 mm 3 mps 750 mmHg 59%
16:00 +4°C° 0.1 mm 3 mps 750 mmHg 64%
17:00 +5°C° 0.1 mm 2 mps 749 mmHg 69%
18:00 +5°C° 0.1 mm 2 mps 749 mmHg 74%
19:00 +5°C° 0.3 mm 2 mps 749 mmHg 80%
20:00 +5°C° 0.3 mm 2 mps 749 mmHg 86%
21:00 +4°C° 0.3 mm 2 mps 748 mmHg 91%
22:00 +5°C° 0.2 mm 2 mps 748 mmHg 92%
23:00 +5°C° 0.2 mm 2 mps 748 mmHg 92%

Day after tomorrow, 22 October, Thursday

Time Temperature Precipitation Wind Pressure Humidity
00:00 +5°C° 0.2 mm 2 mps 747 mmHg 93%
01:00 +5°C° 0 mm 2 mps 747 mmHg 93%
02:00 +5°C° 0 mm 2 mps 747 mmHg 93%
03:00 +6°C° 0 mm 1 mps 747 mmHg 93%
04:00 +6°C° 0 mm 1 mps 747 mmHg 93%
05:00 +6°C° 0 mm 1 mps 747 mmHg 94%
06:00 +7°C° 0 mm 1 mps 747 mmHg 94%
07:00 +7°C° 0 mm 1 mps 747 mmHg 93%
08:00 +7°C° 0 mm 1 mps 747 mmHg 91%
09:00 +6°C° 0 mm 2 mps 747 mmHg 90%
10:00 +7°C° 0 mm 2 mps 747 mmHg 86%
11:00 +8°C° 0 mm 2 mps 747 mmHg 82%
12:00 +9°C° 0 mm 3 mps 747 mmHg 78%
13:00 +9°C° 0 mm 3 mps 746 mmHg 77%
14:00 +9°C° 0 mm 3 mps 746 mmHg 76%
15:00 +9°C° 0 mm 3 mps 746 mmHg 76%
16:00 +9°C° 0.2 mm 3 mps 746 mmHg 80%
17:00 +9°C° 0.2 mm 3 mps 745 mmHg 85%
18:00 +8°C° 0.2 mm 3 mps 745 mmHg 90%
19:00 +8°C° 0.1 mm 3 mps 745 mmHg 90%
20:00 +7°C° 0.1 mm 4 mps 745 mmHg 90%
21:00 +7°C° 0.1 mm 4 mps 744 mmHg 91%
22:00 +7°C° 0 mm 4 mps 744 mmHg 90%
23:00 +7°C° 0 mm 4 mps 744 mmHg 90%

23 October, Friday

Time Temperature Precipitation Wind Pressure Humidity
00:00 +8°C° 0 mm 3 mps 744 mmHg 90%
01:00 +7°C° 0 mm 3 mps 744 mmHg 91%
02:00 +7°C° 0 mm 3 mps 744 mmHg 93%
03:00 +7°C° 0 mm 3 mps 744 mmHg 95%
04:00 +7°C° 0 mm 3 mps 744 mmHg 95%
05:00 +7°C° 0 mm 3 mps 744 mmHg 96%
06:00 +7°C° 0 mm 3 mps 745 mmHg 96%
07:00 +7°C° 0 mm 3 mps 745 mmHg 94%
08:00 +8°C° 0 mm 3 mps 745 mmHg 92%
09:00 +9°C° 0 mm 3 mps 745 mmHg 90%
10:00 +10°C° 0 mm 4 mps 745 mmHg 86%
11:00 +11°C° 0 mm 4 mps 745 mmHg 81%
12:00 +13°C° 0 mm 4 mps 745 mmHg 76%
13:00 +13°C° 0 mm 4 mps 744 mmHg 74%
14:00 +14°C° 0 mm 5 mps 744 mmHg 72%
15:00 +15°C° 0 mm 5 mps 743 mmHg 70%
16:00 +14°C° 0 mm 5 mps 743 mmHg 73%
17:00 +13°C° 0 mm 5 mps 742 mmHg 77%
18:00 +12°C° 0 mm 5 mps 742 mmHg 81%
19:00 +12°C° 0 mm 5 mps 742 mmHg 81%
20:00 +11°C° 0 mm 6 mps 741 mmHg 80%
21:00 +13°C° 0 mm 6 mps 741 mmHg 80%
22:00 +11°C° 0.1 mm 6 mps 741 mmHg 81%
23:00 +11°C° 0.1 mm 6 mps 740 mmHg 82%

24 October, Saturday

Time Temperature Precipitation Wind Pressure Humidity
00:00 +12°C° 0.1 mm 5 mps 740 mmHg 83%
01:00 +12°C° 0.1 mm 5 mps 740 mmHg 83%
02:00 +12°C° 0.1 mm 5 mps 740 mmHg 83%
03:00 +12°C° 0.1 mm 5 mps 740 mmHg 83%
04:00 +10°C° 0 mm 5 mps 740 mmHg 86%
05:00 +10°C° 0 mm 4 mps 740 mmHg 89%
06:00 +10°C° 0 mm 4 mps 740 mmHg 92%
07:00 +10°C° 0 mm 4 mps 741 mmHg 91%
08:00 +10°C° 0 mm 4 mps 741 mmHg 89%
09:00 +10°C° 0 mm 4 mps 741 mmHg 88%
10:00 +11°C° 0 mm 4 mps 741 mmHg 83%
11:00 +11°C° 0 mm 3 mps 742 mmHg 78%
12:00 +12°C° 0 mm 3 mps 742 mmHg 74%
13:00 +12°C° 0 mm 3 mps 742 mmHg 73%
14:00 +12°C° 0 mm 3 mps 742 mmHg 72%
15:00 +12°C° 0 mm 3 mps 742 mmHg 71%
16:00 +13°C° 0 mm 2 mps 742 mmHg 75%
17:00 +12°C° 0 mm 2 mps 742 mmHg 78%
18:00 +11°C° 0 mm 1 mps 741 mmHg 81%
19:00 +11°C° 0 mm 1 mps 741 mmHg 82%
20:00 +11°C° 0 mm 1 mps 741 mmHg 83%
21:00 +11°C° 0 mm 1 mps 741 mmHg 84%
22:00 +11°C° 0.3 mm 1 mps 741 mmHg 86%
23:00 +11°C° 0.3 mm 1 mps 741 mmHg 88%

25 October, Sunday

Time Temperature Precipitation Wind Pressure Humidity
00:00 +10°C° 0.3 mm 1 mps 741 mmHg 90%
01:00 +10°C° 0.7 mm 1 mps 740 mmHg 92%
02:00 +10°C° 0.7 mm 1 mps 739 mmHg 93%
03:00 +10°C° 0.7 mm 1 mps 739 mmHg 94%
04:00 +9°C° 0.8 mm 2 mps 738 mmHg 94%
05:00 +9°C° 0.8 mm 3 mps 737 mmHg 94%
06:00 +9°C° 0.8 mm 3 mps 737 mmHg 94%
07:00 +8°C° 1.9 mm 4 mps 736 mmHg 94%
08:00 +8°C° 1.9 mm 4 mps 735 mmHg 95%
09:00 +8°C° 1.9 mm 5 mps 735 mmHg 95%
10:00 +7°C° 3.2 mm 5 mps 735 mmHg 95%
11:00 +7°C° 3.2 mm 5 mps 734 mmHg 94%
12:00 +7°C° 3.2 mm 6 mps 734 mmHg 93%
13:00 +7°C° 2.1 mm 6 mps 734 mmHg 92%
14:00 +6°C° 2.1 mm 7 mps 735 mmHg 91%
15:00 +6°C° 2.1 mm 8 mps 735 mmHg 90%
16:00 +5°C° 1 mm 9 mps 735 mmHg 89%
17:00 +5°C° 1 mm 9 mps 736 mmHg 88%
18:00 +5°C° 1 mm 10 mps 737 mmHg 87%
19:00 +5°C° 0.3 mm 9 mps 737 mmHg 85%
20:00 +5°C° 0.3 mm 9 mps 738 mmHg 83%
21:00 +5°C° 0.3 mm 8 mps 739 mmHg 82%
22:00 +5°C° 0 mm 7 mps 740 mmHg 82%
23:00 +4°C° 0 mm 7 mps 740 mmHg 82%

26 October, Monday

Time Temperature Precipitation Wind Pressure Humidity
00:00 +4°C° 0 mm 6 mps 741 mmHg 82%
01:00 +4°C° 0 mm 6 mps 741 mmHg 81%
02:00 +3°C° 0 mm 6 mps 742 mmHg 81%
03:00 +3°C° 0 mm 6 mps 743 mmHg 80%
04:00 +2°C° 0 mm 6 mps 743 mmHg 81%
05:00 +1°C° 0 mm 6 mps 743 mmHg 82%
06:00 -1°C° 0 mm 6 mps 744 mmHg 83%
07:00 -1°C° 0 mm 6 mps 744 mmHg 82%
08:00 -1°C° 0 mm 6 mps 744 mmHg 80%
09:00 -1°C° 0 mm 6 mps 745 mmHg 78%
10:00 +1°C° 0 mm 6 mps 745 mmHg 76%
11:00 +1°C° 0 mm 6 mps 746 mmHg 74%
12:00 +1°C° 0 mm 6 mps 746 mmHg 72%
13:00 +2°C° 0 mm 5 mps 747 mmHg 69%
14:00 +2°C° 0 mm 5 mps 747 mmHg 67%
15:00 +3°C° 0 mm 5 mps 747 mmHg 64%
16:00 +3°C° 0 mm 4 mps 747 mmHg 68%
17:00 +3°C° 0 mm 4 mps 748 mmHg 72%
18:00 +2°C° 0 mm 3 mps 748 mmHg 75%
19:00 +2°C° 0 mm 3 mps 748 mmHg 78%
20:00 +1°C° 0 mm 3 mps 748 mmHg 81%
21:00 +1°C° 0 mm 3 mps 749 mmHg 84%
22:00 +1°C° 0 mm 3 mps 749 mmHg 86%
23:00 +1°C° 0 mm 3 mps 749 mmHg 89%
Show more